DateTime,DeltaTime,Roll,TargetAngle,Position,Power
2022-06-02 13:57:10.057,0,-0.17,2.52,6,14.95
2022-06-02 13:57:10.172,0.114996358752251,-0.3,2.01,6,16.19
2022-06-02 13:57:10.287,0.230002775788307,-0.26,2.88,6,11.55
2022-06-02 13:57:10.402,0.344999134540558,-0.22,3.05,5,12.13
2022-06-02 13:57:10.517,0.459995493292809,-0.24,2.78,6,8.99
2022-06-02 13:57:10.631,0.57399608194828,-0.1,3.91,6,9.47
2022-06-02 13:57:10.746,0.689002498984337,0,4.11,6,8.87
2022-06-02 13:57:10.861,0.803998857736588,-0.09,2.97,5,15
2022-06-02 13:57:10.975,0.917999446392059,-0.21,2.42,5,11.52
2022-06-02 13:57:11.091,1.03400163352489,-0.17,3.27,6,8.06
2022-06-02 13:57:11.205,1.14800222218037,-0.26,2.35,6,18.99
2022-06-02 13:57:11.319,1.26200281083584,-0.32,2.25,6,17.29
2022-06-02 13:57:11.434,1.37699916958809,-0.23,3.22,6,12.66
2022-06-02 13:57:11.545,1.48800238966942,-0.18,3.24,6,14.05
2022-06-02 13:57:11.659,1.60200297832489,-0.22,2.72,6,16.96
2022-06-02 13:57:11.774,1.71699933707714,-0.17,3.27,6,13.82
2022-06-02 13:57:11.889,1.83199569582939,-0.02,4.27,6,9.8
2022-06-02 13:57:12.003,1.94599628448486,-0.05,3.36,5,15.79
2022-06-02 13:57:12.118,2.06100270152092,-0.14,2.81,6,12.61
2022-06-02 13:57:12.233,2.17599906027317,-0.18,2.85,6,18.18
2022-06-02 13:57:12.347,2.28999964892864,-0.26,2.38,6,19.6
2022-06-02 13:57:12.462,2.40499600768089,-0.4,1.62,6,23.08
2022-06-02 13:57:12.577,2.52000242471695,-0.3,3.06,5,15.29
2022-06-02 13:57:12.692,2.6349987834692,0.04,5.31,5,1.2
2022-06-02 13:57:12.806,2.74899937212467,0.13,4.58,5,9.08
2022-06-02 13:57:12.920,2.86299996078014,0.05,3.56,5,13.24
2022-06-02 13:57:13.035,2.97799631953239,-0.02,3.32,5,13.28
2022-06-02 13:57:13.146,3.08899953961372,-0.18,2.31,5,18.13
2022-06-02 13:57:13.261,3.20399589836597,-0.44,0.94,5,23.94
2022-06-02 13:57:13.376,3.31900231540203,-0.52,1.44,5,20
2022-06-02 13:57:13.491,3.43399867415428,-0.13,4.94,5,3.48
2022-06-02 13:57:13.605,3.54799926280975,0.1,5.03,4,7.59
2022-06-02 13:57:13.719,3.66199985146523,0.03,3.5,5,10.39
2022-06-02 13:57:13.834,3.77699621021748,-0.1,2.78,5,18.34
2022-06-02 13:57:13.950,3.89299839735031,-0.24,2.17,4,19.33
2022-06-02 13:57:14.063,4.006003215909,-0.54,0.37,3,22.78
2022-06-02 13:57:14.178,4.12099957466125,-0.62,1.06,4,13.65
2022-06-02 13:57:14.293,4.23599593341351,-0.41,3.08,4,10.89
2022-06-02 13:57:14.408,4.35100235044956,-0.23,3.62,4,9.64
2022-06-02 13:57:14.523,4.46599870920181,-0.26,2.59,3,15.51
2022-06-02 13:57:14.633,4.57599610090256,-0.3,2.39,4,10.3
2022-06-02 13:57:14.747,4.68999668955803,-0.29,2.73,4,14.73
2022-06-02 13:57:14.862,4.80500310659409,-0.43,1.47,4,20.26
2022-06-02 13:57:14.976,4.91900369524956,-0.62,0.61,6,23.16
2022-06-02 13:57:15.092,5.03499582409859,-0.57,1.77,3,26.54
2022-06-02 13:57:15.206,5.14899641275406,-0.28,3.95,3,-0.1
2022-06-02 13:57:15.321,5.26400282979012,-0.13,3.87,3,6.99
2022-06-02 13:57:15.435,5.37800341844559,-0.05,3.86,4,6.89
2022-06-02 13:57:15.551,5.49399554729462,-0.02,3.74,3,12.4
2022-06-02 13:57:15.665,5.60799613595009,-0.16,2.54,3,11.92
2022-06-02 13:57:15.779,5.72199672460556,-0.45,0.75,3,20.71
2022-06-02 13:57:15.894,5.83700314164162,-0.59,0.91,3,17.72
2022-06-02 13:57:16.009,5.95199950039387,-0.56,1.77,3,13.83
2022-06-02 13:57:16.124,6.06699585914612,-0.51,2.06,3,13.63
2022-06-02 13:57:16.234,6.17700330913067,-0.53,1.64,3,16.2
2022-06-02 13:57:16.349,6.29199966788292,-0.47,2.22,3,12.88
2022-06-02 13:57:16.463,6.40600025653839,-0.16,4.5,3,2.28
2022-06-02 13:57:16.578,6.52099661529064,0.31,6.85,3,-6.61
2022-06-02 13:57:16.693,6.6360030323267,1.32,13.01,3,-34.73
2022-06-02 13:57:16.808,6.75099939107895,3.06,22.62,6,-75.59
2022-06-02 13:57:16.922,6.86499997973442,3.48,18.43,13,-36.45
2022-06-02 13:57:17.037,6.97999633848667,4.9,28,18,-59.88
2022-06-02 13:57:17.152,7.09500275552273,7.79,28,25,-30.36
2022-06-02 13:57:17.267,7.20999911427498,11.61,28,35,-2.81
2022-06-02 13:57:17.381,7.32399970293045,15.55,28,32,37.76
2022-06-02 13:57:17.496,7.4389960616827,19.07,28,32,10.29
2022-06-02 13:57:17.610,7.55299665033817,21.74,28,32,14.58
2022-06-02 13:57:17.725,7.66800306737423,23.09,28,34,14.95
2022-06-02 13:57:17.840,7.78299942612648,24.68,28,32,25.32
2022-06-02 13:57:17.955,7.89799578487873,25.61,28,32,13.25
2022-06-02 13:57:18.069,8.0119963735342,26.24,28,32,16.23
2022-06-02 13:57:18.184,8.12700279057026,27.53,28,31,16.6
2022-06-02 13:57:18.299,8.24199914932251,28.85,28,32,11.96
2022-06-02 13:57:18.409,8.35199654102325,29.97,28,32,18.55
2022-06-02 13:57:18.523,8.46599712967873,30.58,28,32,17.61
2022-06-02 13:57:18.638,8.58100354671478,31.33,28,32,17.97
2022-06-02 13:57:18.754,8.69699567556381,32.3,28,32,18.34
2022-06-02 13:57:18.867,8.81000049412251,28.27,28,30,18.7
2022-06-02 13:57:18.983,8.92600268125534,16.98,17.15,21,63.34
2022-06-02 13:57:19.097,9.04000326991081,3.76,-22,13,90
2022-06-02 13:57:19.212,9.15499962866306,-5.9,-22,4,90
2022-06-02 13:57:19.327,9.26999598741531,-9.62,-22,-4,84.18
2022-06-02 13:57:19.441,9.38399657607079,-7.2,-12.37,-8,7.8
2022-06-02 13:57:19.556,9.49900299310684,-1.89,19.89,-7,-90
2022-06-02 13:57:19.670,9.61300358176231,0.88,19.08,-2,-90
2022-06-02 13:57:19.786,9.72899571061134,-0.01,-0.26,8,25.47
2022-06-02 13:57:19.899,9.84200052917004,-0.84,-3.05,10,57.41
2022-06-02 13:57:20.014,9.95699688792229,0.84,14.16,7,-35.31
2022-06-02 13:57:20.129,10.0720033049583,1.76,14.25,8,-31.21
2022-06-02 13:57:20.244,10.1869996637106,1.11,4.99,10,23.55
2022-06-02 13:57:20.359,10.3019960224628,0.91,6.2,10,14.29
2022-06-02 13:57:20.473,10.4159966111183,1.18,9.23,9,-1.56
2022-06-02 13:57:20.584,10.5269998311996,1.42,10.04,9,-6.57
2022-06-02 13:57:20.699,10.6419961899519,1.51,9.65,10,-2.36
2022-06-02 13:57:20.813,10.7559967786074,1.58,9.87,12,0.98
2022-06-02 13:57:20.928,10.8710031956434,1.56,9.39,9,12.39
2022-06-02 13:57:21.043,10.9859995543957,1.26,7.03,7,6.19
2022-06-02 13:57:21.157,11.1000001430511,0.96,5.92,9,2.74
2022-06-02 13:57:21.271,11.2140007317066,0.87,6.51,9,11.09
2022-06-02 13:57:21.386,11.3289970904589,0.91,7.24,9,5.79
2022-06-02 13:57:21.502,11.4449992775917,0.89,6.94,10,8.41
2022-06-02 13:57:21.616,11.5589998662472,0.95,7.49,9,10.46
2022-06-02 13:57:21.731,11.6739962249994,1.13,8.65,9,-0.74
2022-06-02 13:57:21.845,11.7879968136549,1.27,9,9,0.42
2022-06-02 13:57:21.960,11.903003230691,1.08,6.9,9,11.35
2022-06-02 13:57:22.071,12.0139963924885,0.76,5.06,9,18
2022-06-02 13:57:22.185,12.127996981144,0.63,5.49,9,13.79
2022-06-02 13:57:22.300,12.24300339818,0.6,5.82,9,13.06
2022-06-02 13:57:22.414,12.3570039868355,0.61,6,9,12.85
2022-06-02 13:57:22.529,12.4720003455877,0.6,5.86,9,14.08
2022-06-02 13:57:22.644,12.58699670434,0.76,7.21,9,7.43
2022-06-02 13:57:22.759,12.702003121376,0.89,7.61,9,7.38
2022-06-02 13:57:22.873,12.8160037100315,0.87,6.77,10,12.2
2022-06-02 13:57:22.988,12.9310000687838,0.69,5.46,9,22.89
2022-06-02 13:57:23.103,13.045996427536,0.6,5.57,9,14.72
2022-06-02 13:57:23.218,13.1610028445721,0.8,7.53,8,6.65
2022-06-02 13:57:23.332,13.2750034332275,0.85,7.06,8,6.72
2022-06-02 13:57:23.447,13.3899997919798,0.76,6.09,8,12.34
2022-06-02 13:57:23.557,13.4999971836805,0.55,4.86,8,17.42
2022-06-02 13:57:23.672,13.6150036007166,0.52,5.44,8,13.19
2022-06-02 13:57:23.786,13.7290041893721,0.48,5.29,8,14.92
2022-06-02 13:57:23.901,13.8440005481243,0.37,4.62,7,18.33
2022-06-02 13:57:24.016,13.9589969068766,0.38,5.17,8,10.03
2022-06-02 13:57:24.131,14.0740033239126,0.56,6.58,7,10.15
2022-06-02 13:57:24.245,14.1880039125681,0.73,7.1,8,3.22
2022-06-02 13:57:24.360,14.3030002713203,0.66,5.85,7,16.47
2022-06-02 13:57:24.475,14.4179966300726,0.46,4.5,8,15.44
2022-06-02 13:57:24.589,14.5319972187281,0.39,4.89,7,18.29
2022-06-02 13:57:24.704,14.6470036357641,0.39,5.08,8,11.8
2022-06-02 13:57:24.819,14.7619999945164,0.34,4.76,8,20.13
2022-06-02 13:57:24.933,14.8760005831718,0.26,4.29,8,21.05
2022-06-02 13:57:25.048,14.9909969419241,0.29,4.92,7,17.65
2022-06-02 13:57:25.159,15.1020001620054,0.47,6.25,8,7.11
2022-06-02 13:57:25.273,15.2160007506609,0.58,6.31,8,14.89
2022-06-02 13:57:25.389,15.3320029377937,0.48,5.06,7,20.11
2022-06-02 13:57:25.502,15.4449976980686,0.28,3.84,7,19.84
2022-06-02 13:57:25.617,15.5600041151047,0.16,3.76,8,20.22
2022-06-02 13:57:25.732,15.6750004738569,0.16,4.26,8,22.91
2022-06-02 13:57:25.847,15.7899968326092,0.15,4.26,7,22.58
2022-06-02 13:57:25.962,15.9050032496452,0.18,4.5,7,16.73
2022-06-02 13:57:26.076,16.0190038383007,0.32,5.51,8,13.55
2022-06-02 13:57:26.191,16.134000197053,0.52,6.52,7,14.95
2022-06-02 13:57:26.305,16.2480007857084,0.51,5.51,7,15.16
2022-06-02 13:57:26.421,16.3640029728413,0.29,3.78,8,23.92
2022-06-02 13:57:26.535,16.4780035614967,0.2,4.07,7,25.5
2022-06-02 13:57:26.649,16.5920041501522,0.54,7.18,6,4.36
2022-06-02 13:57:26.760,16.7029973119497,0.88,8.47,5,-1.7
2022-06-02 13:57:26.875,16.8180037289858,0.84,6.59,5,5.46
2022-06-02 13:57:26.989,16.9320043176413,0.39,3.22,5,21.01
2022-06-02 13:57:27.104,17.0470006763935,0.01,2.06,5,22.56
2022-06-02 13:57:27.219,17.1619970351458,0.19,5.19,4,5.66
2022-06-02 13:57:27.334,17.2770034521818,0.43,6.36,3,-1.1
2022-06-02 13:57:27.448,17.3910040408373,0.42,5.22,3,2.21
2022-06-02 13:57:27.562,17.5050046294928,0.17,3.22,3,11.83
2022-06-02 13:57:27.677,17.620000988245,-0.18,1.5,3,17.82
2022-06-02 13:57:27.792,17.7349973469973,-0.35,1.7,3,14.67
2022-06-02 13:57:27.907,17.8500037640333,-0.26,3.08,3,8.19
2022-06-02 13:57:28.021,17.9640043526888,-0.16,3.55,3,7.62
2022-06-02 13:57:28.132,18.0749975144863,-0.0600000000000001,3.95,3,6.19
2022-06-02 13:57:28.247,18.1900039315224,0.03,4.17,3,5.5
2022-06-02 13:57:28.362,18.3050002902746,0.27,5.74,3,-2.13
2022-06-02 13:57:28.476,18.4190008789301,0.38,5.63,3,0.22
2022-06-02 13:57:28.590,18.5330014675856,0.27,4.17,3,7.13
2022-06-02 13:57:28.705,18.6479978263378,-0.0600000000000001,2.05,3,15.72
2022-06-02 13:57:28.821,18.7640000134706,-0.34,1.2,3,17.29
2022-06-02 13:57:28.935,18.8780006021261,-0.41,1.9,3,12.82
2022-06-02 13:57:29.049,18.9920011907816,-0.32,2.94,3,8.63
2022-06-02 13:57:29.164,19.1069975495338,-0.15,3.91,3,5.15
2022-06-02 13:57:29.279,19.2220039665699,0.02,4.47,3,3.56
2022-06-02 13:57:29.394,19.3370003253222,0.22,5.41,3,-0.59
2022-06-02 13:57:29.508,19.4510009139776,0.37,5.72,4,-1.09
2022-06-02 13:57:29.619,19.562004134059,0.43,5.54,3,4.97
2022-06-02 13:57:29.733,19.6759946644306,0.12,2.83,3,11.8
2022-06-02 13:57:29.848,19.7910010814667,-0.23,1.29,3,17.29
2022-06-02 13:57:29.963,19.9059974402189,-0.6,-0.14,3,22.61
2022-06-02 13:57:30.078,20.021003857255,-0.25,4.34,2,-1.41
2022-06-02 13:57:30.193,20.1360002160072,0.12,5.77,2,-7.82
2022-06-02 13:57:30.307,20.2500008046627,0.44,6.75,3,-9.87
2022-06-02 13:57:30.422,20.364997163415,0.35,4.55,2,7.01
2022-06-02 13:57:30.536,20.4789977520704,0.17,3.56,3,2.59
2022-06-02 13:57:30.651,20.5940041691065,-0.08,2.33,2,13.62
2022-06-02 13:57:30.765,20.7079946994781,-0.05,3.6,2,-0.61
2022-06-02 13:57:30.881,20.823996886611,-0.1,3.1,2,4.73
2022-06-02 13:57:30.991,20.9340043365955,-0.26,2.04,2,9.3
2022-06-02 13:57:31.105,21.0479948669672,-0.36,1.97,2,8.23
2022-06-02 13:57:31.220,21.1630012840033,-0.28,3.02,3,2.92
2022-06-02 13:57:31.335,21.2779976427555,-0.15,3.67,2,5.91
2022-06-02 13:57:31.449,21.391998231411,-0.02,4.19,2,-2.2
2022-06-02 13:57:31.564,21.507004648447,-0.1,3.02,2,5.46
2022-06-02 13:57:31.679,21.6220010071993,-0.2,2.52,2,6.31
2022-06-02 13:57:31.793,21.7360015958548,-0.19,3,3,3.21
2022-06-02 13:57:31.909,21.8520037829876,-0.16,3.28,2,7.37
2022-06-02 13:57:32.023,21.9660043716431,-0.22,2.63,2,4.62
2022-06-02 13:57:32.137,22.0799949020147,-0.41,1.37,2,11.35
2022-06-02 13:57:32.252,22.1950013190508,-0.54,1.08,3,11.2
2022-06-02 13:57:32.367,22.309997677803,-0.41,2.77,3,7.45
2022-06-02 13:57:32.477,22.4199950695038,-0.18,4.04,2,2.04
2022-06-02 13:57:32.593,22.5359972566366,0.01,4.55,2,-3.99
2022-06-02 13:57:32.707,22.6499978452921,0.01,3.78,2,1.63
2022-06-02 13:57:32.822,22.7650042623281,-0.15,2.39,2,7.42
2022-06-02 13:57:32.937,22.8800006210804,-0.29,2,2,7.52
2022-06-02 13:57:33.051,22.9940012097359,-0.38,1.91,2,7.44
2022-06-02 13:57:33.166,23.1089975684881,-0.42,2.01,2,6.83
2022-06-02 13:57:33.280,23.2229981571436,-0.5,1.49,3,9.56
2022-06-02 13:57:33.395,23.3380045741796,-0.5,1.81,2,12.36
2022-06-02 13:57:33.509,23.4519951045513,-0.31,3.42,2,-1.51
2022-06-02 13:57:33.624,23.5670015215874,0.01,5.12,2,-6.71
2022-06-02 13:57:33.739,23.6819978803396,0.21,5.36,3,-5.96
2022-06-02 13:57:33.850,23.793001100421,0.13,3.83,3,6.67
2022-06-02 13:57:33.964,23.9070016890764,-0.12,2.19,3,11.53
2022-06-02 13:57:34.079,24.0219980478287,-0.29,1.9,2,10.86
2022-06-02 13:57:34.194,24.1370044648647,-0.42,1.59,2,7.17
2022-06-02 13:57:34.309,24.252000823617,-0.41,2.21,2,4.97
2022-06-02 13:57:34.423,24.3660014122725,-0.5,1.47,3,9.47
2022-06-02 13:57:34.537,24.4800020009279,-0.46,2.13,3,10.3
2022-06-02 13:57:34.652,24.5949983596802,-0.32,3.14,2,4.82
2022-06-02 13:57:34.767,24.7099947184324,-0.09,4.4,2,-5.14
2022-06-02 13:57:34.881,24.8239953070879,0.14,5.18,2,-6.32
2022-06-02 13:57:34.997,24.9399974942207,0.0800000000000001,3.79,2,1.39
2022-06-02 13:57:35.111,25.0539980828762,-0.09,2.62,2,5.24
2022-06-02 13:57:35.226,25.1690044999123,-0.32,1.54,2,9.06
2022-06-02 13:57:35.337,25.2799976617098,-0.42,1.68,2,7
2022-06-02 13:57:35.451,25.3939982503653,-0.54,1.17,2,9.75
2022-06-02 13:57:35.566,25.5089946091175,-0.66,0.74,2,11.3
2022-06-02 13:57:35.681,25.6240010261536,-0.66,1.28,2,8.17
2022-06-02 13:57:35.795,25.738001614809,-0.36,3.67,2,-3.03
2022-06-02 13:57:35.909,25.8520022034645,-0.03,5.06,3,-7.01
2022-06-02 13:57:36.024,25.9669985622168,0.15,5.06,3,-0.45
2022-06-02 13:57:36.139,26.081994920969,-0.04,2.7,2,9.87
2022-06-02 13:57:36.254,26.1970013380051,-0.4,0.66,2,11.97
2022-06-02 13:57:36.369,26.3119976967573,-0.59,0.66,2,10.77
2022-06-02 13:57:36.483,26.4259982854128,-0.67,0.91,2,9.62
2022-06-02 13:57:36.597,26.5399988740683,-0.67,1.21,2,8.53
2022-06-02 13:57:36.708,26.6510020941496,-0.62,1.6,2,7.07
2022-06-02 13:57:36.823,26.7659984529018,-0.43,2.95,2,0.86
2022-06-02 13:57:36.938,26.8809948116541,-0.13,4.55,2,-5.45
2022-06-02 13:57:37.052,26.9949954003096,0,4.24,2,-2.07
2022-06-02 13:57:37.167,27.1100018173456,-0.09,2.95,2,3.81
2022-06-02 13:57:37.282,27.2249981760979,-0.33,1.41,2,9.73
2022-06-02 13:57:37.397,27.3400045931339,-0.57,0.57,2,11.94
2022-06-02 13:57:37.511,27.4539951235056,-0.57,1.56,3,6.06
2022-06-02 13:57:37.627,27.5699973106384,-0.56,1.69,2,11.71
2022-06-02 13:57:37.741,27.6839978992939,-0.54,1.82,2,5.06
2022-06-02 13:57:37.855,27.7979984879494,-0.51,1.92,2,6.04
2022-06-02 13:57:37.970,27.9129948467016,-0.32,3.39,3,-1.17
2022-06-02 13:57:38.080,28.0230022966862,-0.03,4.83,2,-1.55
2022-06-02 13:57:38.195,28.1379986554384,0.05,4.22,2,-3.14
2022-06-02 13:57:38.309,28.2519992440939,-0.14,2.32,3,6.7
2022-06-02 13:57:38.424,28.3669956028461,-0.42,0.95,2,16.02
2022-06-02 13:57:38.539,28.4820020198822,-0.55,1.07,2,7.52
2022-06-02 13:57:38.655,28.598004207015,-0.53,1.85,2,5.17
2022-06-02 13:57:38.768,28.7109989672899,-0.51,1.9,2,5.94
2022-06-02 13:57:38.883,28.8259953260422,-0.44,2.38,2,3.61
2022-06-02 13:57:38.998,28.9410017430782,-0.18,4.14,2,-4.56
2022-06-02 13:57:39.112,29.0550023317337,0.0600000000000001,4.96,3,-6.56
2022-06-02 13:57:39.227,29.169998690486,0.17,4.81,3,-0.02
2022-06-02 13:57:39.342,29.2849950492382,-0.03,2.75,2,8.61
2022-06-02 13:57:39.457,29.4000014662743,-0.34,1.09,2,9.25
2022-06-02 13:57:39.568,29.5109946280718,-0.48,1.33,2,7.25
2022-06-02 13:57:39.682,29.6249952167273,-0.48,1.88,2,4.89
2022-06-02 13:57:39.797,29.7400016337633,-0.43,2.35,2,3.28
2022-06-02 13:57:39.911,29.8540022224188,-0.4,2.36,3,3.8
2022-06-02 13:57:40.026,29.968998581171,-0.22,3.63,3,2.4
2022-06-02 13:57:40.140,30.0829991698265,0.03,4.89,2,-3.58
2022-06-02 13:57:40.255,30.1979955285788,0.16,4.88,2,-7.07
2022-06-02 13:57:40.371,30.3139977157116,0.01,3.1,3,2.9
2022-06-02 13:57:40.484,30.4270025342703,-0.29,1.27,2,14.62
2022-06-02 13:57:40.600,30.5429946631193,-0.45,1.38,2,5.5
2022-06-02 13:57:40.714,30.6569952517748,-0.47,1.87,2,4.57
2022-06-02 13:57:40.829,30.7720016688108,-0.45,2.11,2,4.02
2022-06-02 13:57:40.939,30.8819990605116,-0.48,1.83,2,5.71
2022-06-02 13:57:41.054,30.9969954192638,-0.39,2.61,2,1.49
2022-06-02 13:57:41.169,31.1120018362999,-0.14,4.29,2,-5.96
2022-06-02 13:57:41.284,31.2269981950521,-0.04,3.98,3,-2.42
2022-06-02 13:57:41.398,31.3409987837076,-0.14,2.79,2,7.97
2022-06-02 13:57:41.512,31.4549993723631,-0.31,1.78,2,5.14
2022-06-02 13:57:41.627,31.5699957311153,-0.5,0.99,3,9.08
2022-06-02 13:57:41.742,31.6850021481514,-0.51,1.8,2,9.13
2022-06-02 13:57:41.857,31.7999985069036,-0.49,1.99,3,3
2022-06-02 13:57:41.972,31.9149948656559,-0.54,1.51,2,12
2022-06-02 13:57:42.086,32.0289954543114,-0.42,2.65,2,-0.54
2022-06-02 13:57:42.201,32.1440018713474,-0.14,4.37,2,-6.41
2022-06-02 13:57:42.311,32.2539992630482,-0.03,4.12,2,-3.1
2022-06-02 13:57:42.426,32.3689956218004,-0.08,3.2,2,1
2022-06-02 13:57:42.540,32.4829962104559,-0.28,1.74,2,6.96
2022-06-02 13:57:42.655,32.598002627492,-0.49,0.97,2,8.95
2022-06-02 13:57:42.771,32.713994756341,-0.5,1.79,3,3.9
2022-06-02 13:57:42.885,32.8279953449965,-0.46,2.19,2,8.01
2022-06-02 13:57:43.000,32.9430017620325,-0.52,1.54,2,5.55
2022-06-02 13:57:43.115,33.0579981207848,-0.41,2.64,3,0.56
2022-06-02 13:57:43.229,33.1719987094402,-0.16,4.2,3,-0.87
2022-06-02 13:57:43.344,33.2869950681925,0,4.39,3,-1.2
2022-06-02 13:57:43.458,33.400995656848,0.01,3.82,2,1.78
2022-06-02 13:57:43.573,33.516002073884,-0.16,2.31,2,3.5
2022-06-02 13:57:43.683,33.6259994655848,-0.33,1.76,3,5.54
2022-06-02 13:57:43.798,33.740995824337,-0.36,2.27,2,7.3
2022-06-02 13:57:43.914,33.8569980114698,-0.35,2.45,2,0.84
2022-06-02 13:57:44.027,33.9700028300285,-0.45,1.59,3,6.63
2022-06-02 13:57:44.142,34.0849991887808,-0.4,2.46,3,6.21
2022-06-02 13:57:44.257,34.199995547533,-0.2,3.83,2,-0.75
2022-06-02 13:57:44.371,34.3139961361885,0.01,4.67,2,-8.28
2022-06-02 13:57:44.486,34.4290025532246,0.1,4.46,2,-5.04
2022-06-02 13:57:44.601,34.5439989119768,-0.12,2.29,2,5.33
2022-06-02 13:57:44.716,34.6589952707291,-0.14,3.09,2,-1.57
2022-06-02 13:57:44.830,34.7729958593845,0.32,6.94,3,-19.86
2022-06-02 13:57:44.946,34.8889980465174,1.42,13.73,3,-44.23
2022-06-02 13:57:45.060,35.0029986351728,2.81,20.19,7,-69.96
2022-06-02 13:57:45.170,35.1129960268736,4.14,24.84,14,-66.71
2022-06-02 13:57:45.285,35.2280024439096,5.33,28,21,-46.65
2022-06-02 13:57:45.400,35.3429988026619,7.91,28,28,-16.67
2022-06-02 13:57:45.514,35.4569993913174,11.96,28,32,8.54
2022-06-02 13:57:45.629,35.5719957500696,16.49,28,33,19.37
2022-06-02 13:57:45.744,35.6870021671057,19.67,28,33,19.49
2022-06-02 13:57:45.859,35.8019985258579,21.62,28,32,18.64
2022-06-02 13:57:45.973,35.9159991145134,22.86,28,32,14.1
2022-06-02 13:57:46.088,36.0309954732656,23.42,28,32,15.77
2022-06-02 13:57:46.202,36.1449960619211,24.01,28,32,16.14
2022-06-02 13:57:46.317,36.2600024789572,24.78,28,32,16.51
2022-06-02 13:57:46.431,36.3740030676126,26.04,28,33,16.87
2022-06-02 13:57:46.546,36.4889994263649,27.16,28,32,22.24
2022-06-02 13:57:46.662,36.6050016134977,28.55,28,33,16.39
2022-06-02 13:57:46.775,36.7179963737726,29.91,28,32,23.06
2022-06-02 13:57:46.891,36.8339985609055,30.59,28,33,17.21
2022-06-02 13:57:47.005,36.9479991495609,31.48,28,33,23.89
2022-06-02 13:57:47.119,37.0619997382164,32.56,28,32,23.04
2022-06-02 13:57:47.234,37.1769960969687,33.66,28,32,18.49
2022-06-02 13:57:47.349,37.2920025140047,34.45,28,32,20.17
2022-06-02 13:57:47.464,37.406998872757,27.62,28,29,20.53
2022-06-02 13:57:47.579,37.5219952315092,15.3,6.43,19,90
2022-06-02 13:57:47.689,37.6320026814938,1.44,-22,10,90
2022-06-02 13:57:47.804,37.746999040246,-7.23,-22,1,90
2022-06-02 13:57:47.918,37.8609996289015,-9.46,-22,-5,73.1
2022-06-02 13:57:48.033,37.9759959876537,-6.19,-4.94,-9,-30.47
2022-06-02 13:57:48.147,38.0899965763092,-1.58,18.01,-7,-90
2022-06-02 13:57:48.262,38.2050029933453,1.31,21.17,1,-90
2022-06-02 13:57:48.377,38.3199993520975,0.32,0.55,10,39.21
2022-06-02 13:57:48.492,38.4349957108498,-0.15,1.1,12,43.96
2022-06-02 13:57:48.606,38.5489962995052,1.05,12.81,9,-14.84
2022-06-02 13:57:48.721,38.6640027165413,2.49,19.19,9,-49.15
2022-06-02 13:57:48.835,38.7780033051968,1.79,7.27,11,22
2022-06-02 13:57:48.951,38.8939954340458,1.26,6.07,12,22.58
2022-06-02 13:57:49.065,39.0079960227013,1.21,7.98,10,14.26
2022-06-02 13:57:49.179,39.1219966113567,1.52,10.65,10,-7.57
2022-06-02 13:57:49.294,39.2370030283928,1.64,10.26,10,0.47
2022-06-02 13:57:49.408,39.3510036170483,1.65,9.86,10,1.96
2022-06-02 13:57:49.525,39.4680015742779,1.67,10,10,0.74
2022-06-02 13:57:49.639,39.5820021629333,1.38,7.53,10,13.26
2022-06-02 13:57:49.749,39.6919995546341,1.05,6.14,10,17.19
2022-06-02 13:57:49.863,39.8060001432896,0.78,5.38,10,19.52
2022-06-02 13:57:49.979,39.9220023304224,0.82,6.93,10,11.2
2022-06-02 13:57:50.093,40.0360029190779,1.01,8.28,10,6.76
2022-06-02 13:57:50.208,40.1509992778301,1.1,8.14,10,9.39
2022-06-02 13:57:50.322,40.2649998664856,1.2,8.59,10,7.12
2022-06-02 13:57:50.437,40.3799962252378,1.17,7.91,10,11.23
2022-06-02 13:57:50.552,40.4950026422739,1.29,8.95,10,5.37
2022-06-02 13:57:50.667,40.6099990010262,1.18,7.6,10,13.54
2022-06-02 13:57:50.781,40.7239995896816,0.93,6.01,10,19.96
2022-06-02 13:57:50.896,40.8389959484339,0.7,5.27,10,21.96
2022-06-02 13:57:51.011,40.9540023654699,0.59,5.43,11,20.59
2022-06-02 13:57:51.125,41.0680029541254,0.75,7.13,10,17.72
2022-06-02 13:57:51.240,41.1829993128777,0.79,6.79,10,15.74
2022-06-02 13:57:51.354,41.2969999015331,0.79,6.66,10,17.51
2022-06-02 13:57:51.469,41.4119962602854,0.67,5.64,10,22.74
2022-06-02 13:57:51.579,41.5220037102699,0.74,6.74,10,16.32
2022-06-02 13:57:51.694,41.6370000690222,0.89,7.63,9,13.61
2022-06-02 13:57:51.809,41.7519964277744,0.82,6.41,10,16.08
2022-06-02 13:57:51.924,41.8670028448105,0.7,5.8,10,24.11
2022-06-02 13:57:52.039,41.9819992035627,0.71,6.35,9,19.58
2022-06-02 13:57:52.153,42.0959997922182,1.07,9.22,8,1.3
2022-06-02 13:57:52.268,42.2109961509705,1.29,9.45,9,0.2
2022-06-02 13:57:52.382,42.3249967396259,1.03,6.34,8,22.27
2022-06-02 13:57:52.497,42.440003156662,0.76,5.34,8,17.1
2022-06-02 13:57:52.612,42.5549995154142,0.69,5.99,7,14.11
2022-06-02 13:57:52.727,42.6699958741665,0.62,5.64,7,11.88
2022-06-02 13:57:52.840,42.7830006927252,0.6,5.85,7,11.8
2022-06-02 13:57:52.956,42.899002879858,0.42,4.45,7,19.19
2022-06-02 13:57:53.071,43.0139992386103,0.38,4.92,7,15.24
2022-06-02 13:57:53.181,43.123996630311,0.47,5.82,7,11.52
2022-06-02 13:57:53.296,43.2390030473471,0.65,6.87,7,7.59
2022-06-02 13:57:53.411,43.3539994060993,0.8,7.3,7,6.79
2022-06-02 13:57:53.525,43.4679999947548,0.7,5.86,7,14.54
2022-06-02 13:57:53.641,43.5840021818876,0.44,4.17,7,21.22
2022-06-02 13:57:53.754,43.6969969421625,0.29,4.12,6,19.51
2022-06-02 13:57:53.869,43.8120033591986,0.47,6.21,6,4.27
2022-06-02 13:57:53.984,43.9269997179508,0.71,7.35,6,2.55
2022-06-02 13:57:54.099,44.0419960767031,0.66,5.92,6,11.13
2022-06-02 13:57:54.213,44.1559966653585,0.56,5.31,6,12.27
2022-06-02 13:57:54.328,44.2710030823946,0.39,4.46,6,15.83
2022-06-02 13:57:54.443,44.3859994411469,0.35,4.82,6,13.02
2022-06-02 13:57:54.557,44.5000000298023,0.45,5.78,6,8.82
2022-06-02 13:57:54.672,44.6149963885546,0.39,4.92,6,14.4
2022-06-02 13:57:54.782,44.7250038385391,0.31,4.48,6,15.56
2022-06-02 13:57:54.897,44.8400001972914,0.16,3.67,6,19.17
2022-06-02 13:57:55.012,44.9549965560436,0.26,5.08,6,11.27
2022-06-02 13:57:55.127,45.0700029730797,0.41,5.88,5,9.2
2022-06-02 13:57:55.241,45.1840035617352,0.39,5.08,7,9.24
2022-06-02 13:57:55.356,45.2989999204874,0.23,3.85,6,25.71
2022-06-02 13:57:55.470,45.4130005091429,0.17,4.08,5,15.55
2022-06-02 13:57:55.585,45.5279968678951,0.35,5.79,5,3.79